TimeCDT,TemperatureF,Dew PointF,Humidity,Sea Level PressureIn,VisibilityMPH,Wind Direction,Wind SpeedMPH,Gust SpeedMPH,PrecipitationIn,Events,Conditions,WindDirDegrees,DateUTC
12:13 AM,62.6,59.0,88,29.89,10.0,North,5.8,-,N/A,Rain-Thunderstorm,Light Thunderstorms and Rain,10,2013-05-17 05:13:00
12:34 AM,62.6,59.0,88,29.88,5.0,ESE,4.6,-,0.06,Rain,Rain,110,2013-05-17 05:34:00
12:54 AM,60.8,59.0,94,29.86,5.0,ESE,9.2,-,0.13,Rain,Rain,110,2013-05-17 05:54:00
1:13 AM,60.8,59.0,94,29.86,5.0,ESE,12.7,-,0.05,Rain,Rain,110,2013-05-17 06:13:00
1:34 AM,60.8,59.0,94,29.85,10.0,ESE,13.8,-,0.06,Rain-Thunderstorm,Light Thunderstorms and Rain,110,2013-05-17 06:34:00
1:53 AM,60.8,59.0,94,29.84,10.0,East,11.5,-,0.06,Rain,Light Rain,100,2013-05-17 06:53:00
2:14 AM,60.8,59.0,94,29.85,10.0,East,6.9,-,N/A,,Scattered Clouds,80,2013-05-17 07:14:00
2:34 AM,60.8,59.0,94,29.85,10.0,East,4.6,-,N/A,,Clear,90,2013-05-17 07:34:00
2:53 AM,60.8,59.0,94,29.85,10.0,Calm,Calm,-,N/A,,Clear,0,2013-05-17 07:53:00
3:14 AM,60.8,59.0,94,29.85,10.0,Calm,Calm,-,N/A,,Clear,0,2013-05-17 08:14:00
3:34 AM,60.8,57.2,88,29.84,10.0,ESE,5.8,-,N/A,,Clear,110,2013-05-17 08:34:00
3:53 AM,60.8,55.4,82,29.84,10.0,ESE,3.5,-,N/A,,Clear,110,2013-05-17 08:53:00
4:14 AM,59.0,55.4,88,29.84,10.0,Calm,Calm,-,N/A,,Scattered Clouds,0,2013-05-17 09:14:00
4:34 AM,60.8,55.4,82,29.85,10.0,Calm,Calm,-,N/A,,Scattered Clouds,0,2013-05-17 09:34:00
4:53 AM,59.0,55.4,88,29.86,10.0,Calm,Calm,-,N/A,,Scattered Clouds,0,2013-05-17 09:53:00
5:14 AM,60.8,55.4,82,29.86,10.0,Calm,Calm,-,N/A,,Scattered Clouds,0,2013-05-17 10:14:00
5:34 AM,60.8,57.2,88,29.86,10.0,SE,4.6,-,N/A,,Clear,140,2013-05-17 10:34:00
5:53 AM,60.8,55.4,82,29.86,10.0,SE,4.6,-,N/A,,Scattered Clouds,130,2013-05-17 10:53:00
6:14 AM,60.8,57.2,88,29.87,10.0,Calm,Calm,-,N/A,,Scattered Clouds,0,2013-05-17 11:14:00
6:33 AM,60.8,57.2,88,29.87,10.0,Calm,Calm,-,N/A,,Mostly Cloudy,0,2013-05-17 11:33:00
7:14 AM,60.8,59.0,94,29.87,7.0,SSE,4.6,-,N/A,,Clear,150,2013-05-17 12:14:00
7:33 AM,62.6,59.0,88,29.88,7.0,SSE,5.8,-,N/A,,Clear,160,2013-05-17 12:33:00
7:54 AM,62.6,60.8,94,29.88,7.0,SSE,5.8,-,N/A,,Clear,160,2013-05-17 12:54:00
8:14 AM,62.6,60.8,94,29.88,7.0,SSE,6.9,-,N/A,,Clear,160,2013-05-17 13:14:00
8:33 AM,64.4,60.8,88,29.88,7.0,SSE,11.5,-,N/A,,Clear,160,2013-05-17 13:33:00
8:54 AM,68.0,62.6,83,29.88,7.0,SSE,11.5,-,N/A,,Clear,160,2013-05-17 13:54:00
9:14 AM,68.0,62.6,83,29.87,7.0,SSE,13.8,-,N/A,,Scattered Clouds,160,2013-05-17 14:14:00
9:33 AM,68.0,62.6,83,29.87,7.0,SSE,12.7,-,N/A,,Clear,150,2013-05-17 14:33:00
9:53 AM,68.0,62.6,83,29.87,7.0,SSE,10.4,-,N/A,,Scattered Clouds,150,2013-05-17 14:53:00
10:14 AM,69.8,62.6,78,29.87,7.0,SSE,11.5,17.3,N/A,,Scattered Clouds,150,2013-05-17 15:14:00
10:34 AM,71.6,64.4,78,29.87,7.0,SSE,15.0,18.4,N/A,,Scattered Clouds,160,2013-05-17 15:34:00
10:53 AM,73.4,64.4,73,29.87,10.0,SSE,13.8,19.6,N/A,,Mostly Cloudy,160,2013-05-17 15:53:00
11:14 AM,73.4,64.4,73,29.87,10.0,South,15.0,19.6,N/A,,Clear,170,2013-05-17 16:14:00
11:34 AM,73.4,64.4,73,29.87,10.0,South,13.8,17.3,N/A,,Clear,170,2013-05-17 16:34:00
11:53 AM,75.2,64.4,69,29.87,7.0,South,13.8,18.4,N/A,,Scattered Clouds,170,2013-05-17 16:53:00
12:14 PM,77.0,64.4,65,29.87,10.0,South,13.8,-,N/A,,Scattered Clouds,180,2013-05-17 17:14:00
12:34 PM,77.0,64.4,65,29.86,7.0,South,17.3,-,N/A,,Scattered Clouds,170,2013-05-17 17:34:00
12:53 PM,77.0,64.4,65,29.86,10.0,South,18.4,23.0,N/A,,Scattered Clouds,190,2013-05-17 17:53:00
1:13 PM,78.8,64.4,61,29.85,10.0,South,19.6,25.3,N/A,,Scattered Clouds,170,2013-05-17 18:13:00
1:34 PM,78.8,64.4,61,29.85,10.0,South,13.8,-,N/A,,Scattered Clouds,190,2013-05-17 18:34:00
2:13 PM,78.8,64.4,61,29.85,10.0,South,13.8,-,N/A,,Mostly Cloudy,190,2013-05-17 19:13:00
2:34 PM,80.6,62.6,54,29.85,10.0,South,15.0,19.6,N/A,,Scattered Clouds,180,2013-05-17 19:34:00
2:53 PM,80.6,62.6,54,29.85,10.0,South,16.1,20.7,N/A,,Scattered Clouds,190,2013-05-17 19:53:00
3:14 PM,80.6,62.6,54,29.84,10.0,South,16.1,-,N/A,,Scattered Clouds,190,2013-05-17 20:14:00
3:34 PM,80.6,60.8,51,29.83,10.0,South,17.3,25.3,N/A,,Scattered Clouds,190,2013-05-17 20:34:00
3:53 PM,82.4,60.8,48,29.83,10.0,South,16.1,20.7,N/A,,Scattered Clouds,180,2013-05-17 20:53:00
4:14 PM,82.4,60.8,48,29.82,10.0,South,16.1,19.6,N/A,,Scattered Clouds,180,2013-05-17 21:14:00
4:34 PM,82.4,59.0,45,29.81,10.0,South,16.1,-,N/A,,Scattered Clouds,190,2013-05-17 21:34:00
4:54 PM,82.4,59.0,45,29.81,10.0,South,13.8,-,N/A,,Scattered Clouds,190,2013-05-17 21:54:00
5:14 PM,82.4,59.0,45,29.81,10.0,South,13.8,-,N/A,,Scattered Clouds,180,2013-05-17 22:14:00
5:33 PM,82.4,59.0,45,29.81,10.0,South,10.4,-,N/A,,Scattered Clouds,180,2013-05-17 22:33:00
5:54 PM,82.4,59.0,45,29.81,10.0,South,10.4,16.1,N/A,,Scattered Clouds,180,2013-05-17 22:54:00
6:14 PM,82.4,59.0,45,29.81,10.0,South,9.2,-,N/A,,Clear,170,2013-05-17 23:14:00
6:33 PM,82.4,57.2,42,29.81,10.0,SE,11.5,17.3,N/A,,Scattered Clouds,140,2013-05-17 23:33:00
6:54 PM,82.4,59.0,45,29.80,10.0,SSE,11.5,-,N/A,,Clear,150,2013-05-17 23:54:00
7:14 PM,80.6,60.8,51,29.80,10.0,SE,11.5,19.6,N/A,,Mostly Cloudy,140,2013-05-18 00:14:00
7:33 PM,80.6,60.8,51,29.80,10.0,SE,13.8,19.6,N/A,,Mostly Cloudy,140,2013-05-18 00:33:00
7:54 PM,78.8,60.8,54,29.80,10.0,SSE,11.5,16.1,N/A,,Scattered Clouds,150,2013-05-18 00:54:00
8:14 PM,78.8,60.8,54,29.81,10.0,SSE,11.5,-,N/A,,Clear,150,2013-05-18 01:14:00
8:33 PM,77.0,60.8,57,29.82,10.0,SSE,9.2,-,N/A,,Clear,150,2013-05-18 01:33:00
8:54 PM,75.2,59.0,57,29.84,10.0,SSE,8.1,-,N/A,,Clear,160,2013-05-18 01:54:00
9:14 PM,75.2,59.0,57,29.84,10.0,SSE,10.4,-,N/A,,Clear,150,2013-05-18 02:14:00
9:33 PM,71.6,60.8,69,29.84,10.0,SE,13.8,18.4,N/A,,Clear,140,2013-05-18 02:33:00
9:54 PM,71.6,60.8,69,29.84,10.0,SSE,9.2,-,N/A,,Clear,160,2013-05-18 02:54:00
10:13 PM,69.8,60.8,73,29.85,10.0,SSE,6.9,-,N/A,,Clear,160,2013-05-18 03:13:00
10:34 PM,69.8,60.8,73,29.85,10.0,SSE,5.8,-,N/A,,Clear,150,2013-05-18 03:34:00
10:54 PM,68.0,60.8,78,29.85,10.0,SE,5.8,-,N/A,,Clear,140,2013-05-18 03:54:00
11:34 PM,68.0,60.8,78,29.85,10.0,SSE,9.2,-,N/A,,Clear,160,2013-05-18 04:34:00
11:53 PM,68.0,60.8,78,29.85,10.0,SSE,9.2,-,N/A,,Clear,150,2013-05-18 04:53:00